TimeEST,TemperatureF,Dew PointF,Humidity,Sea Level PressureIn,VisibilityMPH,Wind Direction,Wind SpeedMPH,Gust SpeedMPH,PrecipitationIn,Events,Conditions,WindDirDegrees,DateUTC
12:33 AM,8.1,-0.0,70,30.00,10.0,WNW,11.5,17.3,0.00,,Overcast,290,2013-12-30 05:33:00
12:54 AM,7.0,-0.0,73,30.06,10.0,WNW,8.1,-,0.00,,Overcast,300,2013-12-30 05:54:00
1:09 AM,7.0,-0.9,70,30.02,10.0,WNW,6.9,-,N/A,,Overcast,300,2013-12-30 06:09:00
1:54 AM,5.0,-2.0,73,30.08,10.0,WNW,6.9,-,N/A,,Overcast,300,2013-12-30 06:54:00
2:16 AM,3.9,-2.0,76,30.04,10.0,WNW,8.1,-,N/A,,Scattered Clouds,290,2013-12-30 07:16:00
2:54 AM,3.0,-2.0,80,30.12,10.0,WNW,5.8,-,N/A,,Clear,290,2013-12-30 07:54:00
3:54 AM,1.0,-2.9,83,30.14,10.0,West,4.6,-,N/A,,Clear,280,2013-12-30 08:54:00
4:54 AM,-0.0,-4.0,83,30.16,10.0,NW,6.9,-,N/A,,Clear,320,2013-12-30 09:54:00
5:54 AM,-2.0,-5.1,87,30.17,10.0,WSW,4.6,-,N/A,,Clear,250,2013-12-30 10:54:00
6:54 AM,-2.9,-7.1,82,30.20,10.0,WSW,4.6,-,N/A,,Clear,250,2013-12-30 11:54:00
7:54 AM,-5.1,-8.0,87,30.22,10.0,SW,3.5,-,N/A,,Clear,230,2013-12-30 12:54:00
8:54 AM,-5.1,-9.0,83,30.24,10.0,SW,3.5,-,N/A,,Overcast,220,2013-12-30 13:54:00
9:54 AM,1.9,-2.0,83,30.27,10.0,South,4.6,-,N/A,,Overcast,170,2013-12-30 14:54:00
10:44 AM,6.1,1.0,80,30.22,2.5,South,5.8,-,N/A,,Haze,190,2013-12-30 15:44:00
10:51 AM,6.8,1.4,79,30.22,8.0,SSW,6.9,-,N/A,,Overcast,200,2013-12-30 15:51:00
10:54 AM,7.0,1.9,80,30.27,9.0,SSW,5.8,-,N/A,,Overcast,200,2013-12-30 15:54:00
11:54 AM,9.0,3.9,80,30.25,5.0,South,4.6,-,0.00,Snow,Light Snow,190,2013-12-30 16:54:00
12:54 PM,10.9,5.0,77,30.23,10.0,SW,4.6,-,0.00,,Overcast,230,2013-12-30 17:54:00
1:54 PM,12.9,5.0,71,30.20,10.0,SW,5.8,-,N/A,,Overcast,230,2013-12-30 18:54:00
2:06 PM,14.0,5.0,67,30.15,10.0,SW,9.2,-,N/A,,Overcast,230,2013-12-30 19:06:00
2:18 PM,14.0,3.9,64,30.14,10.0,SW,11.5,-,N/A,,Overcast,230,2013-12-30 19:18:00
2:54 PM,15.1,1.9,56,30.19,10.0,West,10.4,-,0.00,,Overcast,260,2013-12-30 19:54:00
3:54 PM,14.0,1.0,56,30.19,10.0,SW,8.1,-,N/A,,Overcast,230,2013-12-30 20:54:00
4:54 PM,12.9,1.0,59,30.19,10.0,SW,6.9,-,N/A,,Overcast,220,2013-12-30 21:54:00
5:54 PM,12.9,1.0,59,30.19,10.0,SW,4.6,-,N/A,,Overcast,220,2013-12-30 22:54:00
6:54 PM,12.0,1.0,61,30.19,10.0,SSW,3.5,-,N/A,,Overcast,210,2013-12-30 23:54:00
7:54 PM,10.9,1.0,64,30.18,10.0,South,4.6,-,N/A,,Overcast,190,2013-12-31 00:54:00
8:54 PM,10.9,1.0,64,30.17,10.0,SW,4.6,-,N/A,,Overcast,220,2013-12-31 01:54:00
9:54 PM,10.9,1.9,67,30.14,10.0,Calm,Calm,-,N/A,,Overcast,0,2013-12-31 02:54:00
10:54 PM,10.0,1.9,70,30.12,10.0,South,4.6,-,N/A,,Overcast,190,2013-12-31 03:54:00
11:54 PM,10.0,1.9,70,30.10,10.0,SSW,5.8,-,N/A,,Overcast,200,2013-12-31 04:54:00